Skip Page Navigation
NASA JPL Caltech
NASA Logo - Jet Propulsion Laboratory + View the NASA Portal
+ Near-Earth Object (NEO) Program
Search JPL
JPL Home Earth Solar System Stars & Galaxies Technology
JPL Solar System Dynamics
BODIES ORBITS EPHEMERIDES TOOLS PHYSICAL DATA DISCOVERY FAQ SITE MAP
JPL Small-Body Database Browser
Search: [ help ]  
2413 van de Hulst (6816 P-L)
Classification: Main-belt Asteroid          SPK-ID: 2002413
Ephemeris | Orbit Diagram | Orbital Elements | Physical Parameters | Discovery Circumstances ]

[ hide orbit diagram ]
Orbit Diagram
Note: Make sure you have Java enabled on your browser to see the applet. This applet is provided as a 3D orbit visualization tool. The applet was implemented using 2-body methods, and hence should not be used for determining accurate long-term trajectories (over several years or decades) or planetary encounter circumstances. For accurate long-term ephemerides, please instead use our Horizons system.
Orbit Viewer

Additional Notes: the orbits shown in the applet are color coded. The planets are white lines, and the asteroid/comet is a blue line. The bright white line indicates the portion of the orbit that is above the ecliptic plane, and the darker portion is below the ecliptic plane. Likewise for the asteroid/comet orbit, the light blue indicates the portion above the ecliptic plane, and the dark blue the portion below the ecliptic plane.

Orbit Viewer applet originally written and kindly provided by Osamu Ajiki (AstroArts), and further modified by Ron Baalke (JPL).


Orbital Elements at Epoch 2456400.5 (2013-Apr-18.0) TDB
Reference: MPO250223 (heliocentric ecliptic J2000)
 Element Value Uncertainty (1-sigma)   Units 
e 0.1129389 n/a  
a 3.0147535 n/a AU
q 2.6742706 n/a AU
i 10.63899 n/a deg
node 166.59837 n/a deg
peri 254.21500 n/a deg
M 321.75867 n/a deg
tp 2456603.5984609
(2013-Nov-07.09846090)
n/a JED
period 1911.9483013
5.23
n/a
n/a
d
yr
n 0.18828961 n/a deg/d
Q 3.3552364 n/a AU
  Orbit Determination Parameters
   # obs. used (total)      887  
   first obs. used      1931-??-??  
   last obs. used      2012-12-07  
   # oppositions      24  
   planetary ephem.      DE403  
   condition code      0  
   fit RMS      0.58  
   data source      MPC:mpn  
   producer      MPCLINUX  

Additional Information
 T_jup = 3.213 

Ephemeris | Orbit Diagram | Orbital Elements | Physical Parameters | Discovery Circumstances ]

Physical Parameter Table
Parameter Symbol Value Units Sigma Reference Notes
absolute magnitude H 10.80 mag n/a IRAS-A-FPA-3-RDR-IMPS-V6.0 IRAS observations used: 2
diameter diameter 22.82 km 2.0 IRAS-A-FPA-3-RDR-IMPS-V6.0 IRAS observations used: 2
geometric albedo albedo 0.1624   0.032 IRAS-A-FPA-3-RDR-IMPS-V6.0 IRAS observations used: 2

2413 van de Hulst (6816 P-L)          Discovered 1960-Sep-24 by PLS at Palomar (675)
These planets have all been discovered as a result of the Palomar survey of faint minor planets and subsequently identified with planets observed at other oppositions. In Sept. and Oct. 1960, T. Gehrels exposed 130 plates with the 122 cm Schmidt camera at Palomar. In the following years C. J. van Houten and I. van Houten-Groeneveld measured these plates astrometrically and photometrically at Leiden. P. Herget, Cincinnati, computed the orbits of the planets found on the NORC computer, Dahlgren, Virginia, USA.
Note: "planet" implies "minor planet"
Reference: DISCOVERY.DBLast Updated: 2003-08-29

Alternate Designations
 6816 P-L = 1931 EM = 1952 DV1 = 1973 FY1 = 1978 ER4 
Ephemeris | Orbit Diagram | Orbital Elements | Physical Parameters | Discovery Circumstances ]
ABOUT SSD CREDITS/AWARDS PRIVACY/COPYRIGHT GLOSSARY LINKS
FirstGov 2013-May-19 05:22 UT
(server date/time)  
NASA Home Page
Site Manager:   Donald K. Yeomans
Webmaster  Alan B. Chamberlin